Find Starlink 37132

NORAD ID: 68233 Int'l Des: 2026-054 Owner: SPXS Country: US Constellation: starlink operational
LEOCIRCULAR

現在のビュー

3D地球を読み込み中...

About Starlink 37132

Starlink 37132 (NORAD 68233) is a starlink constellation satellite (v2 mini) launched Mar 17, 2026 by SPXS of US. It operates in LEO, CIRCULAR orbit with a mass of 575.00 kg.

Starlink 37132について

説明を読み込み中...

次回通過

Passes for default location (London). Set your location on the main map for personalized predictions.

高度履歴

Loading altitude history...

軌道要素

1 68233U 26054B 26166.80136846 .00036754 00000-0 66530-3 0 9994
2 68233 53.1554 194.0063 0000921 82.3973 277.7140 15.49329780 14117
Epoch: Jun 15, 2026 • Age: 15 hours

現在のステータス

高度 434.2 km
速度 7.65 km/s
衛星直下点 -44.75°S, 81.89°E
打ち上げ日 Mar 17, 2026
運用期間 0.2 years
タイプ internet

技術仕様

分類 Payload
質量 575.00 kg
乾燥質量 530.00 kg
総質量 575.00 kg
長さ 0.30 m
直径 4.10 m
スパン 29.00 m
形状 Box + pan
製造者 SPXS
バスタイプ Starlink V2MO
フェーズステータス In Orbit
所有者/国 SPXS/US

Most Searched